Fort Leonard Wood, MO

1:13 PM CDT on March 24, 2017 (GMT -0500)
Waynesville Regional At Forney Field

Weather History for KTBN - November, 2011

Change the Weather History Date:

Friday, November 25, 2011

  Actual Average Record
Temperature  
Mean Temperature 52 °F -  
Max Temperature 64 °F 51 °F 69 °F (2006)
Min Temperature 41 °F 37 °F 21 °F (2005)
Degree Days  
Heating Degree Days 12    
Growing Degree Days 2 (Base 50)    
Moisture  
Dew Point 44 °F    
Average Humidity 75    
Maximum Humidity 99    
Minimum Humidity 46    
Precipitation  
Precipitation 0.00 in - - ()
Sea Level Pressure  
Sea Level Pressure 30.00 in    
Wind  
Wind Speed 11 mph (South)    
Max Wind Speed 16 mph    
Max Gust Speed 24 mph    
Visibility 10 miles    
Events      
Averages and records for this station are not official NWS values.
T = Trace of Precipitation, MM = Missing Value Source: NWS Daily Summary

Daily Weather History Graph

Daily Weather History Graph

Search for Another Location

Airport or City:

Trip Planner

Search our weather history database for the weather conditions in past years. The results will help you decide how hot, cold, wet, or windy it might be!

Date:

Astronomy

Nov. 25, 2011 Rise Set
Actual Time 6:58 AM CST 4:51 PM CST
Civil Twilight 6:30 AM CST 5:20 PM CST
Nautical Twilight 5:58 AM CST 5:52 PM CST
Astronomical Twilight 5:26 AM CST 6:24 PM CST
Moon 7:26 AM CST (11/25) 5:20 PM CST (11/25)
Length of Visible Light 10h 50m
Length of Day
9h 52m
New Moon, 0% of the Moon is Illuminated
Nov 25
New Moon
Dec 2
First Quarter
Dec 10
Full
Dec 17
Last Quarter
Dec 24
New

Hourly Weather History & Observations

Time (CST) Temp. Windchill Dew Point Humidity Pressure Visibility Wind Dir Wind Speed Gust Speed Precip Events Conditions
12:55 AM 43.0 °F 37.7 °F 42.6 °F 99% 30.12 in 10.0 mi SSE 9.2 mph - N/A   Clear
1:55 AM 42.4 °F 36.5 °F 42.3 °F 99% 30.09 in 10.0 mi South 10.4 mph - N/A   Clear
2:55 AM 42.1 °F 37.1 °F 41.7 °F 99% 30.09 in 10.0 mi South 8.1 mph - N/A   Clear
3:55 AM 41.9 °F 36.3 °F 41.7 °F 99% 30.09 in 10.0 mi SSE 9.2 mph - N/A   Clear
4:55 AM 41.5 °F 36.4 °F 41.2 °F 99% 30.09 in 10.0 mi SSE 8.1 mph - N/A   Clear
5:55 AM 43.0 °F 37.2 °F 42.8 °F 99% 30.09 in 10.0 mi SSE 10.4 mph - N/A   Partly Cloudy
6:55 AM 44.2 °F 39.2 °F 43.5 °F 97% 30.09 in 10.0 mi South 9.2 mph - N/A   Clear
7:55 AM 46.9 °F - 45.0 °F 93% 30.09 in 10.0 mi South 11.5 mph - N/A   Clear
8:55 AM 51.3 °F - 46.2 °F 83% 30.08 in 10.0 mi South 12.7 mph 20.7 mph N/A   Clear
9:55 AM 54.5 °F - 46.4 °F 74% 30.06 in 10.0 mi South 16.1 mph 23.0 mph N/A   Clear
10:55 AM 58.6 °F - 46.0 °F 63% 30.03 in 10.0 mi South 13.8 mph 24.2 mph N/A   Clear
11:55 AM 62.8 °F - 43.7 °F 50% 29.98 in 10.0 mi South 12.7 mph 23.0 mph N/A   Clear
12:55 PM 63.9 °F - 43.5 °F 48% 29.95 in 10.0 mi South 15.0 mph 23.0 mph N/A   Clear
1:55 PM 64.4 °F - 43.0 °F 46% 29.94 in 10.0 mi South 15.0 mph 21.9 mph N/A   Clear
2:55 PM 62.6 °F - 42.4 °F 48% 29.93 in 10.0 mi South 13.8 mph 23.0 mph N/A   Partly Cloudy
3:55 PM 61.7 °F - 42.1 °F 49% 29.92 in 10.0 mi South 11.5 mph 21.9 mph N/A   Partly Cloudy
4:55 PM 59.4 °F - 43.0 °F 55% 29.93 in 10.0 mi South 8.1 mph - N/A   Clear
5:55 PM 57.7 °F - 43.5 °F 59% 29.93 in 10.0 mi South 10.4 mph 18.4 mph N/A   Scattered Clouds
6:55 PM 56.1 °F - 43.2 °F 62% 29.93 in 10.0 mi South 13.8 mph 19.6 mph N/A   Clear
7:55 PM 54.5 °F - 44.1 °F 68% 29.95 in 10.0 mi South 8.1 mph - N/A   Clear
8:55 PM 53.6 °F - 45.3 °F 74% 29.94 in 10.0 mi South 10.4 mph 17.3 mph N/A   Clear
9:55 PM 52.9 °F - 46.9 °F 80% 29.94 in 10.0 mi South 10.4 mph 20.7 mph N/A   Clear
10:55 PM 52.5 °F - 47.8 °F 84% 29.94 in 10.0 mi South 9.2 mph - N/A   Scattered Clouds
11:55 PM 53.4 °F - 48.4 °F 83% 29.91 in 10.0 mi SSE 12.7 mph - N/A   Mostly Cloudy